contact:dominique.lefevre@mio.osupytheas.fr, maurice.libes@osupytheas.fr, didier.mallarino@osupytheas.fr
Project:EMSO http://www.emso-fr.org/EMSO-France
Depth: 2436.0 m
Title:EMSO Ligure Ouest : Data MII capteur AQUADOPP
Date,Latitude,Longitude,X_East,Y_North,Z_Up,Amplitude_X,Amplitude_Y,Amplitude_Z,Batterie,SoundSpeed,Heading,Pitch,Roll,Pressure,TIS,Speed,Direction
, degrees North, degrees East, m.s-1, m.s-1,m.s-1, 1, 1, 1, Volt, m.s-1, degree, degree, degree, dbar, degree_C, m.s-1, degree
2022-04-04T00:04:03,42.805,6.029,-0.026,0.013,0.012,103.0,103.0,102.0,13.4,1505.2,327.7,-0.8,1.8,2470.862,13.28,0.029,296.6
2022-04-04T00:07:03,42.805,6.029,-0.049,0.005,0.004,103.0,103.0,102.0,13.3,1505.2,329.5,-0.8,1.8,2470.824,13.28,0.049,275.8
2022-04-04T00:10:03,42.805,6.029,-0.045,0.023,0.019,103.0,103.0,101.0,13.4,1505.2,326.4,-0.7,1.8,2470.843,13.29,0.05,297.1
2022-04-04T00:13:03,42.805,6.029,-0.044,0.017,0.003,103.0,105.0,102.0,13.3,1505.2,330.2,-0.7,1.8,2470.814,13.29,0.047,291.1
2022-04-04T00:16:03,42.805,6.029,-0.038,0.0,0.022,104.0,104.0,103.0,13.4,1505.2,326.8,-0.8,1.9,2470.824,13.29,0.038,270.0
2022-04-04T00:19:03,42.805,6.029,-0.043,-0.003,0.0,104.0,104.0,103.0,13.4,1505.2,329.6,-0.8,1.8,2470.828,13.29,0.043,266.0
2022-04-04T00:22:03,42.805,6.029,-0.042,0.006,-0.022,104.0,102.0,102.0,13.4,1505.2,324.7,-0.7,1.8,2470.83,13.29,0.042,278.1
2022-04-04T00:25:03,42.805,6.029,-0.028,0.009,-0.015,103.0,104.0,101.0,13.3,1505.2,331.5,-0.8,1.8,2470.777,13.29,0.029,287.8
2022-04-04T00:28:03,42.805,6.029,-0.028,0.004,-0.01,104.0,103.0,101.0,13.3,1505.2,329.3,-0.7,1.8,2470.801,13.29,0.028,278.1
2022-04-04T00:31:03,42.805,6.029,-0.051,0.018,-0.007,103.0,104.0,100.0,13.4,1505.2,330.3,-0.7,1.8,2470.784,13.29,0.054,289.4
2022-04-04T00:34:03,42.805,6.029,-0.016,-0.011,-0.016,104.0,103.0,101.0,13.3,1505.2,323.6,-0.8,1.8,2470.782,13.29,0.019,235.5
2022-04-04T00:37:03,42.805,6.029,-0.018,-0.007,0.017,104.0,103.0,101.0,13.4,1505.2,326.0,-0.7,1.8,2470.783,13.29,0.019,248.8
2022-04-04T00:40:03,42.805,6.029,-0.022,0.005,0.013,105.0,104.0,101.0,13.4,1505.2,330.4,-0.8,1.8,2470.782,13.29,0.022,282.8
2022-04-04T00:43:03,42.805,6.029,-0.043,0.0,-0.001,102.0,104.0,101.0,13.4,1505.2,326.1,-0.8,1.8,2470.798,13.29,0.043,270.0
2022-04-04T00:46:03,42.805,6.029,-0.024,0.008,-0.005,104.0,104.0,102.0,13.4,1505.2,323.5,-0.7,1.8,2470.764,13.29,0.025,288.4
2022-04-04T00:49:03,42.805,6.029,-0.034,-0.007,0.005,103.0,104.0,101.0,13.4,1505.2,323.4,-0.8,1.8,2470.792,13.29,0.034,258.4
2022-04-04T00:52:03,42.805,6.029,-0.034,0.016,0.003,104.0,104.0,102.0,13.4,1505.2,327.0,-0.7,1.8,2470.742,13.29,0.037,295.2
2022-04-04T00:55:03,42.805,6.029,-0.031,0.0,-0.018,102.0,105.0,102.0,13.4,1505.2,329.2,-0.7,1.8,2470.82,13.29,0.03,270.0
2022-04-04T00:58:03,42.805,6.029,-0.016,0.017,-0.01,103.0,103.0,101.0,13.4,1505.2,327.9,-0.7,1.8,2470.795,13.29,0.023,316.7
2022-04-04T01:04:03,42.805,6.029,-0.023,0.015,0.005,107.0,104.0,103.0,13.3,1505.2,325.4,-0.7,1.9,2470.781,13.28,0.027,303.1
2022-04-04T01:07:03,42.805,6.029,-0.017,-0.005,-0.009,104.0,104.0,102.0,13.4,1505.2,325.3,-0.8,1.8,2470.769,13.28,0.017,253.6
2022-04-04T01:10:03,42.805,6.029,-0.024,0.004,0.008,104.0,103.0,102.0,13.4,1505.2,325.3,-0.8,1.8,2470.772,13.29,0.024,279.5
2022-04-04T01:13:03,42.805,6.029,-0.05,0.009,0.005,103.0,103.0,102.0,13.4,1505.2,330.1,-0.7,1.8,2470.789,13.29,0.05,280.2
2022-04-04T01:16:03,42.805,6.029,-0.05,0.006,-0.002,104.0,103.0,101.0,13.4,1505.2,325.4,-0.7,1.8,2470.751,13.29,0.05,276.8
2022-04-04T01:19:03,42.805,6.029,-0.038,0.0,0.012,103.0,101.0,102.0,13.4,1505.2,327.0,-0.7,1.8,2470.754,13.29,0.038,270.0
2022-04-04T01:22:03,42.805,6.029,-0.029,0.001,0.006,104.0,103.0,102.0,13.3,1505.2,332.0,-0.8,1.8,2470.79,13.29,0.029,272.0
2022-04-04T01:25:03,42.805,6.029,-0.042,0.008,0.011,102.0,103.0,101.0,13.4,1505.2,330.5,-0.8,1.8,2470.732,13.29,0.042,280.8
2022-04-04T01:28:03,42.805,6.029,-0.045,0.021,0.002,102.0,103.0,101.0,13.4,1505.2,332.2,-0.7,1.9,2470.797,13.29,0.049,295.0
2022-04-04T01:31:03,42.805,6.029,-0.025,0.003,0.01,103.0,101.0,101.0,13.4,1505.2,328.0,-0.8,1.8,2470.714,13.29,0.025,276.8
2022-04-04T01:34:03,42.805,6.029,-0.056,0.018,0.013,102.0,103.0,101.0,13.4,1505.2,326.5,-0.7,1.8,2470.741,13.29,0.058,287.8
2022-04-04T01:37:03,42.805,6.029,-0.006,0.0,-0.002,102.0,102.0,102.0,13.4,1505.2,326.9,-0.7,1.9,2470.754,13.29,0.006,270.0
2022-04-04T01:40:03,42.805,6.029,-0.016,-0.012,0.017,103.0,102.0,100.0,13.4,1505.2,326.8,-0.7,1.9,2470.793,13.29,0.02,233.1
2022-04-04T01:43:03,42.805,6.029,-0.021,0.0,-0.031,102.0,103.0,100.0,13.4,1505.2,330.2,-0.8,1.8,2470.787,13.29,0.021,270.0
2022-04-04T01:46:03,42.805,6.029,-0.023,0.018,0.008,102.0,102.0,101.0,13.4,1505.2,330.4,-0.7,1.8,2470.751,13.29,0.029,308.0
2022-04-04T01:49:03,42.805,6.029,-0.037,0.011,0.014,103.0,103.0,101.0,13.4,1505.2,330.0,-0.7,1.8,2470.739,13.29,0.038,286.6
2022-04-04T01:52:03,42.805,6.029,-0.045,0.008,0.002,103.0,103.0,103.0,13.4,1505.2,324.8,-0.8,1.8,2470.701,13.29,0.045,280.1
2022-04-04T01:55:03,42.805,6.029,-0.03,-0.001,-0.004,101.0,102.0,102.0,13.4,1505.2,323.2,-0.8,1.8,2470.781,13.29,0.03,268.1
2022-04-04T01:58:03,42.805,6.029,-0.038,0.01,-0.011,103.0,102.0,101.0,13.4,1505.2,328.2,-0.8,1.8,2470.77,13.29,0.039,284.7
2022-04-04T02:04:03,42.805,6.029,-0.031,-0.009,-0.001,103.0,101.0,101.0,13.4,1505.2,325.5,-0.7,1.8,2470.782,13.28,0.032,253.8
2022-04-04T02:07:03,42.805,6.029,-0.023,0.012,0.024,102.0,102.0,101.0,13.4,1505.2,325.8,-0.8,1.8,2470.747,13.28,0.025,297.6
2022-04-04T02:10:03,42.805,6.029,-0.047,-0.008,-0.006,101.0,102.0,102.0,13.4,1505.2,325.3,-0.7,1.8,2470.738,13.29,0.047,260.3
2022-04-04T02:13:03,42.805,6.029,-0.041,0.015,0.009,102.0,101.0,102.0,13.3,1505.2,329.4,-0.8,1.8,2470.749,13.29,0.043,290.1
2022-04-04T02:16:03,42.805,6.029,-0.042,0.009,0.006,100.0,103.0,99.0,13.4,1505.2,330.9,-0.7,1.8,2470.759,13.29,0.042,282.1
2022-04-04T02:19:03,42.805,6.029,-0.022,-0.001,-0.018,101.0,102.0,102.0,13.4,1505.2,326.5,-0.8,1.8,2470.688,13.29,0.022,267.4
2022-04-04T02:22:03,42.805,6.029,-0.027,0.0,0.037,103.0,102.0,101.0,13.4,1505.2,329.7,-0.8,1.8,2470.773,13.29,0.026,270.0
2022-04-04T02:25:03,42.805,6.029,-0.021,-0.014,-0.009,104.0,102.0,101.0,13.4,1505.2,328.3,-0.8,1.8,2470.75,13.29,0.025,236.3
2022-04-04T02:28:03,42.805,6.029,-0.035,0.019,-0.011,102.0,102.0,102.0,13.4,1505.2,325.8,-0.7,1.8,2470.734,13.29,0.039,298.5
2022-04-04T02:31:03,42.805,6.029,-0.042,0.0,0.0,101.0,103.0,101.0,13.4,1505.2,324.0,-0.8,1.8,2470.75,13.29,0.042,270.0
2022-04-04T02:34:03,42.805,6.029,-0.03,0.0,0.017,101.0,102.0,102.0,13.4,1505.2,327.9,-0.8,1.9,2470.729,13.29,0.03,270.0
2022-04-04T02:37:03,42.805,6.029,-0.049,0.009,-0.015,103.0,103.0,101.0,13.3,1505.2,323.0,-0.7,1.8,2470.717,13.29,0.049,280.4
2022-04-04T02:40:03,42.805,6.029,-0.025,0.005,0.015,101.0,102.0,102.0,13.4,1505.2,328.4,-0.8,1.8,2470.734,13.29,0.025,281.3
2022-04-04T02:43:03,42.805,6.029,-0.037,0.007,0.011,102.0,102.0,101.0,13.4,1505.2,322.9,-0.8,1.8,2470.722,13.29,0.037,280.7
2022-04-04T02:46:03,42.805,6.029,-0.044,0.014,0.0,102.0,102.0,101.0,13.4,1505.2,332.3,-0.7,1.8,2470.708,13.29,0.046,287.6
2022-04-04T02:49:03,42.805,6.029,-0.016,-0.002,-0.009,102.0,102.0,101.0,13.4,1505.2,323.4,-0.8,1.8,2470.742,13.29,0.016,262.9
2022-04-04T02:52:03,42.805,6.029,-0.033,-0.028,-0.039,103.0,102.0,100.0,13.4,1505.2,326.8,-0.7,1.9,2470.731,13.29,0.043,229.7
2022-04-04T02:55:03,42.805,6.029,-0.041,-0.015,-0.01,102.0,102.0,101.0,13.3,1505.2,325.7,-0.8,1.8,2470.727,13.29,0.043,249.9
2022-04-04T02:58:03,42.805,6.029,-0.047,0.018,0.051,102.0,102.0,101.0,13.4,1505.2,325.5,-0.7,1.8,2470.705,13.29,0.05,291.0
2022-04-04T03:04:03,42.805,6.029,-0.028,0.011,0.019,103.0,103.0,100.0,13.4,1505.2,325.4,-0.8,1.8,2470.78,13.28,0.03,291.4
2022-04-04T03:07:03,42.805,6.029,-0.046,-0.01,-0.019,102.0,102.0,100.0,13.4,1505.2,327.0,-0.8,1.8,2470.73,13.28,0.047,257.7
2022-04-04T03:10:03,42.805,6.029,-0.018,-0.015,-0.011,102.0,101.0,103.0,13.4,1505.2,329.0,-0.8,1.8,2470.739,13.29,0.023,230.2
2022-04-04T03:13:03,42.805,6.029,-0.007,-0.029,0.039,103.0,102.0,101.0,13.4,1505.2,322.5,-0.7,1.9,2470.743,13.29,0.029,193.6
2022-04-04T03:16:03,42.805,6.029,-0.041,0.0,0.001,102.0,102.0,101.0,13.4,1505.2,327.0,-0.8,1.8,2470.698,13.29,0.041,270.0
2022-04-04T03:19:03,42.805,6.029,-0.023,0.003,0.018,104.0,102.0,101.0,13.4,1505.2,331.8,-0.8,1.8,2470.763,13.29,0.023,277.4
2022-04-04T03:22:03,42.805,6.029,-0.039,-0.006,-0.005,103.0,101.0,101.0,13.3,1505.2,325.9,-0.8,1.8,2470.73,13.29,0.039,261.3
2022-04-04T03:25:03,42.805,6.029,-0.021,-0.006,-0.01,101.0,101.0,101.0,13.4,1505.2,322.2,-0.8,1.8,2470.735,13.29,0.021,254.1
2022-04-04T03:28:03,42.805,6.029,-0.028,0.006,0.005,102.0,102.0,100.0,13.4,1505.2,324.6,-0.8,1.9,2470.703,13.29,0.028,282.1
2022-04-04T03:31:03,42.805,6.029,-0.018,-0.02,-0.016,101.0,101.0,101.0,13.4,1505.2,323.4,-0.8,1.8,2470.726,13.29,0.026,222.0
2022-04-04T03:34:03,42.805,6.029,-0.006,-0.004,0.006,101.0,102.0,100.0,13.4,1505.2,328.3,-0.7,1.8,2470.707,13.29,0.007,236.3
2022-04-04T03:37:03,42.805,6.029,-0.026,-0.003,-0.017,102.0,101.0,100.0,13.4,1505.2,326.2,-0.8,1.8,2470.73,13.29,0.026,263.4
2022-04-04T03:40:03,42.805,6.029,-0.032,-0.009,-0.014,102.0,102.0,101.0,13.4,1505.2,329.3,-0.8,1.8,2470.743,13.29,0.033,254.3
2022-04-04T03:43:03,42.805,6.029,-0.018,0.004,0.01,102.0,102.0,102.0,13.4,1505.2,332.0,-0.7,1.8,2470.7,13.29,0.018,282.5
2022-04-04T03:46:03,42.805,6.029,-0.024,-0.012,0.017,102.0,102.0,101.0,13.4,1505.2,332.0,-0.8,1.8,2470.714,13.29,0.026,243.4
2022-04-04T03:49:03,42.805,6.029,-0.041,-0.006,-0.018,102.0,101.0,101.0,13.4,1505.2,328.9,-0.8,1.8,2470.728,13.29,0.041,261.7
2022-04-04T03:52:03,42.805,6.029,-0.017,-0.012,-0.013,103.0,103.0,101.0,13.3,1505.2,326.1,-0.8,1.8,2470.747,13.29,0.02,234.8
2022-04-04T03:55:03,42.805,6.029,-0.044,-0.008,0.001,101.0,103.0,100.0,13.4,1505.2,323.4,-0.8,1.8,2470.734,13.29,0.044,259.7
2022-04-04T03:58:03,42.805,6.029,-0.015,-0.009,0.014,102.0,102.0,102.0,13.3,1505.2,324.4,-0.8,1.8,2470.68,13.29,0.017,239.0
2022-04-04T04:04:03,42.805,6.029,-0.012,-0.006,0.027,103.0,102.0,101.0,13.4,1505.2,325.0,-0.8,1.8,2470.796,13.28,0.013,243.4
2022-04-04T04:07:03,42.805,6.029,-0.025,-0.018,-0.001,102.0,102.0,100.0,13.4,1505.2,328.5,-0.7,1.8,2470.739,13.29,0.03,234.2
2022-04-04T04:10:03,42.805,6.029,-0.018,0.009,-0.004,102.0,102.0,101.0,13.4,1505.2,325.9,-0.7,1.8,2470.715,13.29,0.02,296.6
2022-04-04T04:13:03,42.805,6.029,-0.006,0.007,0.021,103.0,102.0,101.0,13.4,1505.2,324.8,-0.8,1.8,2470.742,13.29,0.009,319.4
2022-04-04T04:16:03,42.805,6.029,-0.024,-0.001,0.01,102.0,101.0,99.0,13.4,1505.2,328.9,-0.7,1.8,2470.724,13.29,0.024,267.6
2022-04-04T04:19:03,42.805,6.029,-0.003,-0.011,-0.008,102.0,104.0,100.0,13.4,1505.2,328.3,-0.8,1.8,2470.731,13.29,0.011,195.3
2022-04-04T04:22:03,42.805,6.029,-0.006,-0.011,-0.008,103.0,101.0,101.0,13.4,1505.2,329.9,-0.8,1.8,2470.685,13.29,0.012,208.6
2022-04-04T04:25:03,42.805,6.029,-0.03,-0.012,-0.02,102.0,102.0,101.0,13.4,1505.2,329.6,-0.7,1.8,2470.691,13.29,0.032,248.2
2022-04-04T04:28:03,42.805,6.029,-0.009,-0.001,0.014,103.0,103.0,101.0,13.3,1505.2,322.7,-0.8,1.8,2470.72,13.29,0.009,263.7
2022-04-04T04:31:03,42.805,6.029,-0.027,-0.008,0.014,103.0,103.0,102.0,13.4,1505.2,326.4,-0.8,1.8,2470.712,13.29,0.028,253.5
2022-04-04T04:34:03,42.805,6.029,-0.042,-0.007,-0.025,103.0,102.0,101.0,13.4,1505.2,323.2,-0.8,1.8,2470.724,13.29,0.042,260.5
2022-04-04T04:37:03,42.805,6.029,-0.03,0.019,-0.004,102.0,103.0,102.0,13.4,1505.2,328.9,-0.7,1.8,2470.695,13.29,0.035,302.3
2022-04-04T04:40:03,42.805,6.029,-0.043,0.007,0.001,102.0,104.0,101.0,13.4,1505.2,327.5,-0.8,1.8,2470.71,13.29,0.043,279.2
2022-04-04T04:43:03,42.805,6.029,-0.029,-0.008,0.013,103.0,102.0,101.0,13.4,1505.2,324.4,-0.8,1.8,2470.719,13.29,0.03,254.6
2022-04-04T04:46:03,42.805,6.029,-0.032,-0.012,-0.046,102.0,102.0,101.0,13.3,1505.2,322.7,-0.7,1.8,2470.713,13.29,0.034,249.4
2022-04-04T04:49:03,42.805,6.029,-0.028,-0.001,-0.012,102.0,103.0,101.0,13.4,1505.2,326.8,-0.7,1.8,2470.694,13.29,0.028,268.0
2022-04-04T04:52:03,42.805,6.029,-0.021,-0.005,0.021,102.0,102.0,101.0,13.4,1505.2,328.1,-0.8,1.8,2470.668,13.29,0.021,256.6
2022-04-04T04:55:03,42.805,6.029,-0.027,-0.017,0.004,102.0,102.0,101.0,13.4,1505.2,328.9,-0.7,1.8,2470.739,13.29,0.031,237.8
2022-04-04T04:58:03,42.805,6.029,-0.028,0.004,-0.006,102.0,102.0,101.0,13.4,1505.2,331.4,-0.8,1.8,2470.74,13.29,0.028,278.1
2022-04-04T05:04:03,42.805,6.029,-0.005,0.004,0.008,103.0,101.0,101.0,13.4,1505.2,331.1,-0.8,1.8,2470.763,13.29,0.006,308.7
2022-04-04T05:07:03,42.805,6.029,-0.021,0.005,0.012,103.0,102.0,100.0,13.4,1505.2,325.6,-0.8,1.8,2470.744,13.29,0.021,283.4
2022-04-04T05:10:03,42.805,6.029,-0.041,-0.006,0.003,102.0,102.0,101.0,13.3,1505.2,324.7,-0.7,1.8,2470.696,13.29,0.041,261.7
2022-04-04T05:13:03,42.805,6.029,-0.016,-0.005,0.006,103.0,104.0,101.0,13.3,1505.2,329.4,-0.7,1.8,2470.714,13.29,0.016,252.6
2022-04-04T05:16:03,42.805,6.029,-0.02,0.016,0.021,103.0,103.0,101.0,13.4,1505.2,332.9,-0.7,1.8,2470.723,13.29,0.025,308.7
2022-04-04T05:19:03,42.805,6.029,-0.033,-0.008,-0.01,103.0,102.0,101.0,13.4,1505.2,331.6,-0.8,1.8,2470.739,13.29,0.033,256.4
2022-04-04T05:22:03,42.805,6.029,-0.011,0.002,0.008,102.0,104.0,100.0,13.4,1505.2,324.2,-0.8,1.8,2470.761,13.29,0.011,280.3
2022-04-04T05:25:03,42.805,6.029,-0.032,-0.016,-0.009,103.0,101.0,101.0,13.4,1505.2,323.2,-0.7,1.8,2470.737,13.29,0.035,243.4
2022-04-04T05:28:03,42.805,6.029,-0.025,-0.016,0.033,103.0,103.0,101.0,13.4,1505.2,327.7,-0.8,1.8,2470.735,13.29,0.029,237.4
2022-04-04T05:31:03,42.805,6.029,-0.025,-0.001,-0.014,102.0,102.0,101.0,13.3,1505.2,325.8,-0.8,1.8,2470.758,13.29,0.025,267.7
2022-04-04T05:34:03,42.805,6.029,-0.018,-0.005,0.004,102.0,103.0,101.0,13.4,1505.2,327.4,-0.7,1.8,2470.732,13.29,0.018,254.5
2022-04-04T05:37:03,42.805,6.029,-0.041,-0.02,-0.012,102.0,103.0,102.0,13.4,1505.2,322.0,-0.8,1.8,2470.768,13.29,0.045,244.0
2022-04-04T05:40:03,42.805,6.029,-0.044,-0.004,0.003,103.0,102.0,101.0,13.4,1505.2,326.7,-0.8,1.8,2470.72,13.29,0.044,264.8
2022-04-04T05:43:03,42.805,6.029,-0.006,-0.024,0.002,101.0,104.0,102.0,13.4,1505.2,324.7,-0.7,1.8,2470.749,13.29,0.024,194.0
2022-04-04T05:46:03,42.805,6.029,-0.026,0.0,-0.018,102.0,101.0,102.0,13.3,1505.2,326.7,-0.7,1.8,2470.757,13.29,0.026,270.0
2022-04-04T05:49:03,42.805,6.029,-0.012,-0.001,0.027,102.0,101.0,101.0,13.4,1505.2,322.6,-0.8,1.8,2470.743,13.29,0.012,265.2
2022-04-04T05:52:03,42.805,6.029,-0.03,-0.02,-0.035,102.0,102.0,101.0,13.4,1505.2,328.7,-0.8,1.8,2470.746,13.29,0.036,236.3
2022-04-04T05:55:03,42.805,6.029,-0.029,0.001,0.005,103.0,101.0,101.0,13.3,1505.2,332.0,-0.7,1.8,2470.77,13.29,0.029,272.0
2022-04-04T05:58:03,42.805,6.029,-0.039,0.001,0.012,104.0,100.0,102.0,13.3,1505.2,322.6,-0.8,1.8,2470.753,13.29,0.039,271.5
2022-04-04T06:04:03,42.805,6.029,-0.015,-0.006,0.014,100.0,103.0,101.0,13.4,1505.2,324.2,-0.8,1.8,2470.803,13.28,0.016,248.2
2022-04-04T06:07:03,42.805,6.029,-0.026,0.001,0.001,102.0,102.0,104.0,13.3,1505.2,326.7,-0.7,1.8,2470.763,13.29,0.026,272.2
2022-04-04T06:10:03,42.805,6.029,-0.02,-0.011,0.016,102.0,101.0,101.0,13.4,1505.2,324.4,-0.8,1.8,2470.823,13.29,0.022,241.2
2022-04-04T06:13:03,42.805,6.029,-0.017,-0.005,-0.008,102.0,102.0,101.0,13.3,1505.2,325.1,-0.8,1.8,2470.774,13.29,0.017,253.6
2022-04-04T06:16:03,42.805,6.029,-0.025,-0.001,0.003,102.0,101.0,100.0,13.4,1505.2,323.8,-0.8,1.8,2470.807,13.29,0.025,267.7
2022-04-04T06:19:03,42.805,6.029,-0.035,-0.003,0.02,103.0,102.0,101.0,13.4,1505.2,326.5,-0.7,1.8,2470.796,13.29,0.035,265.1
2022-04-04T06:22:03,42.805,6.029,-0.037,-0.006,-0.029,100.0,103.0,101.0,13.4,1505.2,329.4,-0.7,1.8,2470.795,13.29,0.037,260.8
2022-04-04T06:25:03,42.805,6.029,-0.027,-0.016,-0.006,103.0,102.0,100.0,13.4,1505.2,325.7,-0.8,1.8,2470.77,13.29,0.031,239.3
2022-04-04T06:28:03,42.805,6.029,-0.01,0.003,0.02,101.0,102.0,102.0,13.3,1505.2,325.2,-0.8,1.8,2470.807,13.29,0.01,286.7
2022-04-04T06:31:03,42.805,6.029,-0.007,-0.024,-0.005,103.0,102.0,100.0,13.4,1505.2,326.7,-0.8,1.8,2470.827,13.29,0.025,196.3
2022-04-04T06:34:03,42.805,6.029,-0.023,-0.014,-0.012,102.0,102.0,100.0,13.4,1505.2,326.0,-0.8,1.8,2470.805,13.29,0.026,238.7
2022-04-04T06:37:03,42.805,6.029,-0.016,0.0,0.01,101.0,102.0,100.0,13.4,1505.2,322.9,-0.7,1.8,2470.806,13.29,0.016,270.0
2022-04-04T06:40:03,42.805,6.029,-0.023,0.011,0.035,103.0,103.0,101.0,13.4,1505.2,326.0,-0.7,1.8,2470.83,13.29,0.025,295.6
2022-04-04T06:43:03,42.805,6.029,-0.032,0.005,0.018,103.0,103.0,100.0,13.4,1505.2,322.2,-0.7,1.8,2470.807,13.29,0.032,278.9
2022-04-04T06:46:03,42.805,6.029,-0.062,0.011,0.004,102.0,100.0,101.0,13.4,1505.2,331.6,-0.8,1.8,2470.788,13.29,0.062,280.1
2022-04-04T06:49:03,42.805,6.029,-0.006,-0.008,0.01,101.0,101.0,101.0,13.3,1505.2,328.5,-0.8,1.8,2470.838,13.29,0.01,216.9
2022-04-04T06:52:03,42.805,6.029,-0.033,0.003,-0.002,101.0,102.0,101.0,13.3,1505.2,328.1,-0.7,1.8,2470.82,13.29,0.033,275.2
2022-04-04T06:55:03,42.805,6.029,-0.008,-0.02,-0.043,102.0,103.0,100.0,13.4,1505.2,328.0,-0.8,1.8,2470.818,13.29,0.021,201.8
2022-04-04T06:58:03,42.805,6.029,-0.024,-0.001,-0.009,103.0,101.0,101.0,13.3,1505.2,329.8,-0.8,1.8,2470.793,13.29,0.024,267.6
2022-04-04T07:04:03,42.805,6.029,-0.044,-0.017,-0.012,103.0,103.0,100.0,13.4,1505.2,325.5,-0.8,1.8,2470.861,13.29,0.047,248.9
2022-04-04T07:07:03,42.805,6.029,-0.024,-0.018,-0.012,102.0,102.0,101.0,13.4,1505.2,325.6,-0.8,1.8,2470.833,13.29,0.03,233.1
2022-04-04T07:10:18,42.805,6.029,-0.034,-0.008,0.01,103.0,103.0,101.0,13.4,1505.2,330.9,-0.7,1.8,2470.838,13.29,0.034,256.8
2022-04-04T07:13:03,42.805,6.029,-0.01,0.0,-0.002,103.0,103.0,101.0,13.4,1505.2,323.9,-0.8,1.8,2470.812,13.29,0.01,270.0
2022-04-04T07:16:03,42.805,6.029,-0.027,-0.005,-0.001,103.0,102.0,100.0,13.3,1505.2,329.0,-0.8,1.8,2470.842,13.29,0.027,259.5
2022-04-04T07:19:03,42.805,6.029,-0.041,-0.01,0.013,103.0,103.0,100.0,13.3,1505.2,329.1,-0.8,1.8,2470.847,13.29,0.042,256.3
2022-04-04T07:22:03,42.805,6.029,-0.039,-0.01,-0.031,101.0,104.0,102.0,13.4,1505.2,331.0,-0.7,1.8,2470.837,13.29,0.04,255.6
2022-04-04T07:25:03,42.805,6.029,-0.015,-0.001,0.015,102.0,103.0,101.0,13.3,1505.2,327.1,-0.8,1.8,2470.857,13.29,0.015,266.2
2022-04-04T07:28:03,42.805,6.029,-0.017,0.0,0.015,102.0,102.0,101.0,13.4,1505.2,326.7,-0.7,1.8,2470.824,13.29,0.017,270.0
2022-04-04T07:31:03,42.805,6.029,-0.037,0.006,0.021,104.0,101.0,101.0,13.4,1505.2,332.5,-0.7,1.8,2470.828,13.29,0.037,279.2
2022-04-04T07:34:03,42.805,6.029,-0.037,0.008,-0.026,103.0,102.0,101.0,13.4,1505.2,331.8,-0.8,1.8,2470.842,13.29,0.037,282.2
2022-04-04T07:37:03,42.805,6.029,-0.007,0.003,0.006,102.0,101.0,102.0,13.4,1505.2,326.9,-0.7,1.8,2470.797,13.29,0.007,293.2
2022-04-04T07:40:03,42.805,6.029,-0.039,-0.008,0.005,103.0,103.0,101.0,13.3,1505.2,329.2,-0.8,1.8,2470.85,13.29,0.039,258.4
2022-04-04T07:43:03,42.805,6.029,-0.031,0.014,-0.02,102.0,102.0,101.0,13.3,1505.2,330.6,-0.8,1.8,2470.849,13.29,0.034,294.3
2022-04-04T07:46:03,42.805,6.029,-0.034,-0.014,0.019,103.0,102.0,100.0,13.4,1505.2,323.4,-0.7,1.8,2470.83,13.29,0.036,247.6
2022-04-04T07:49:03,42.805,6.029,-0.021,0.005,0.004,102.0,102.0,101.0,13.4,1505.2,330.5,-0.7,1.8,2470.833,13.29,0.021,283.4
2022-04-04T07:52:03,42.805,6.029,-0.03,-0.017,-0.035,102.0,103.0,100.0,13.3,1505.2,328.6,-0.8,1.8,2470.855,13.29,0.034,240.5
2022-04-04T07:55:03,42.805,6.029,-0.005,-0.019,0.004,102.0,101.0,101.0,13.4,1505.2,322.4,-0.8,1.8,2470.865,13.29,0.019,194.7
